Location: Unspecified
(0.0000°N, 0.0000°E)
Time: 00:26:14
(UTC+00:00)

Vanguard 1 - Pass Details

Date: 15 December 2017
Orbit: 650 x 3833 km, 34.2° (Epoch: 20 July)

Event Time Altitude Azimuth Distance (km) Brightness Sun altitude
Rises 14:25:39 0° 328° (NNW) 5,262 13.8 46.7°
Reaches altitude 10° 14:32:53 10° 358° (N) 3,398 12.7 45.2°
Maximum altitude 14:35:15 11° 15° (NNE) 3,018 12.4 44.7°
Drops below altitude 10° 14:37:20 10° 33° (NNE) 2,885 12.2 44.3°
Sets 14:41:51 0° 68° (ENE) 3,373 12.4 43.4°
